BMCB-31 Weather Reports


time (UTC)temp
F
wind
direction
speed
knots
gust
knots
rain 1hr
in
rain 24hr
in
rain mn
in
humidity
%
barometer
mb
20260506034054 46 0 0.0 0.0 0.02 0.56 0.17 10 1008.3
20260506023057 46 0 0.0 0.0 0.06 0.55 0.15 10 1008.5
20260506022054 46 0 0.0 0.0 0.06 0.54 0.14 10 1008.5
20260505232100 47 0 0.0 0.0 0.04 0.44 0.04 10 1009.6
20260505231059 47 0 0.0 0.0 0.03 0.43 0.03 10 1009.6
20260505225100 47 0 0.0 0.0 0.04 0.42 0.02 10 1009.7
20260505221103 48 0 0.0 0.0 0.02 0.40 0.00 10 1009.7
20260505215100 48 0 0.0 0.0 0.03 0.40 0.40 10 1009.8
20260505205057 48 0 0.0 0.0 0.06 0.38 0.38 10 1010.1
20260505204100 48 0 0.0 0.0 0.08 0.37 0.37 10 1010.2
20260505202101 48 0 0.0 0.0 0.07 0.35 0.35 10 1010.1
20260505200059 48 0 0.0 0.0 0.08 0.33 0.33 10 1010.0
20260505195057 48 0 0.0 0.0 0.07 0.32 0.32 10 1010.0
20260505194059 48 0 0.0 0.0 0.08 0.31 0.31 10 1009.9
20260505192100 49 0 0.0 0.0 0.06 0.29 0.29 10 1009.8
20260505191058 49 0 0.0 0.0 0.06 0.28 0.28 10 1009.8
20260505181102 50 0 0.0 0.0 0.09 0.23 0.23 10 1009.7
20260505170057 50 0 0.0 0.0 0.09 0.13 0.13 10 1009.8
20260505165058 51 0 0.0 0.0 0.09 0.13 0.13 10 1009.8
20260505164056 51 0 0.0 0.0 0.08 0.11 0.11 10 1009.9
20260505163100 51 0 0.0 0.0 0.07 0.10 0.10 10 1009.9
20260505162059 51 0 0.0 0.0 0.06 0.09 0.09 10 1009.9
20260505153059 51 0 0.0 0.0 0.00 0.03 0.03 99 1010.1
20260505152059 51 0 0.0 0.0 0.00 0.03 0.03 99 1010.1
20260505151056 52 0 0.0 0.0 0.00 0.03 0.03 98 1010.0
20260505124055 55 0 0.0 0.0 0.02 0.17 0.03 93 1010.4
20260505123054 56 0 0.0 0.0 0.00 0.14 0.01 90 1010.4
20260505120054 57 0 0.0 0.0 0.00 0.14 0.01 88 1010.4
20260505115054 56 0 0.0 0.0 0.00 0.14 0.01 88 1010.5
20260505114056 56 0 0.0 0.0 0.00 0.14 0.01 89 1010.6
20260505113055 56 0 0.0 0.0 0.00 0.14 0.01 91 1010.7
20260505112055 55 0 0.0 0.0 0.00 0.14 0.01 89 1010.8
20260505102054 55 0 0.0 0.0 0.00 0.14 0.01 89 1011.0
20260505101059 56 0 0.0 0.0 0.00 0.14 0.01 89 1011.0
20260505100056 56 0 0.0 0.0 0.00 0.14 0.01 90 1011.0
20260505095054 55 0 0.0 0.0 0.00 0.14 0.01 91 1011.1
20260505094055 55 0 0.0 0.0 0.00 0.14 0.01 92 1011.1
20260505093057 55 0 0.0 0.0 0.00 0.14 0.01 93 1011.2
20260505091055 55 0 0.0 0.0 0.00 0.14 0.01 92 1011.3
20260505090053 55 0 0.0 0.0 0.00 0.14 0.01 90 1011.3
20260505085056 55 0 0.0 0.0 0.00 0.14 0.01 91 1011.3
20260505083054 55 0 0.0 0.0 0.00 0.14 0.01 92 1011.4
20260505082057 54 0 0.0 0.0 0.00 0.14 0.01 93 1011.4
20260505081056 54 0 0.0 0.0 0.00 0.14 0.01 94 1011.5
20260505075053 54 0 0.0 0.0 0.00 0.14 0.01 95 1011.6
20260505074057 54 0 0.0 0.0 0.00 0.14 0.01 95 1011.6
20260505073055 54 0 0.0 0.0 0.00 0.14 0.01 96 1011.7
20260505071058 53 0 0.0 0.0 0.00 0.14 0.01 98 1011.8
20260505070051 53 0 0.0 0.0 0.00 0.14 0.01 99 1011.8
20260505065057 53 0 0.0 0.0 0.00 0.14 0.01 10 1011.9
20260505064053 53 0 0.0 0.0 0.00 0.14 0.01 10 1011.9
20260505062053 52 0 0.0 0.0 0.00 0.14 0.01 10 1012.1
20260505061052 52 0 0.0 0.0 0.00 0.14 0.01 10 1012.1
20260505060058 51 0 0.0 0.0 0.00 0.14 0.01 10 1012.1
20260505055053 51 0 0.0 0.0 0.00 0.14 0.01 10 1012.1
20260505054058 51 0 0.0 0.0 0.00 0.14 0.01 10 1012.1
20260505053055 51 0 0.0 0.0 0.00 0.14 0.01 10 1012.1
20260505051055 51 0 0.0 0.0 0.00 0.14 0.01 10 1012.1